sat.trackr.live / text

‹ back to catalog

STARLINK-30260

NORAD 57524 · 2023-115D

PAYLOAD ACTIVE UNKNOWN

§ Identity

Operator
Country
US
Launch date
2023-08-08
Launch site
AFWTR
Launch vehicle
Mass (kg)
RCS (m²)

Purposes: comms

External: N2YO · Heavens-Above · Gunter

§ Orbital elements

Epoch: 2026-05-24T21:06:25.611840Z

Period
94.27 min
Inclination
43.0026°
Eccentricity
0.0001928
Mean motion
15.27575714 rev/d
Perigee alt
481.7 km
Apogee alt
484.4 km
Semi-major
6,861.2 km
B*
3.3721e-5
RAAN
291.3258°
Arg perigee
268.9407°
Mean anomaly
91.1224°
Rev number
15,400

§ Raw data

STARLINK-302601 57524U 23115D   26144.87946310  .00000666  00000+0  33721-4 0  99972 57524  43.0026 291.3258 0001928 268.9407  91.1224 15.27575714154009

JSON: /api/v1/satellites/57524 · /tle

For live sub-satellite position, see the globe view (requires WebGL).

§ Visibility from observer

Set your observer location to see the next 7 days of passes ≥ 10°. The values pass through the URL so the page stays shareable.

No JS? Fill the form by hand. The geolocation button needs JavaScript.